Weather History for South Lake Tahoe, CA

Change the Weather History Date:

Monday, February 25, 2013

  Actual Average Record
Temperature  
Mean Temperature 33 °F 32 °F  
Max Temperature 48 °F 45 °F 58 °F (2014)
Min Temperature 18 °F 19 °F -2 °F (1977)
Degree Days  
Heating Degree Days 32 33  
Month to date heating degree days 854 857  
Since 1 July heating degree days 4925 5139  
Cooling Degree Days 0 0  
Month to date cooling degree days 0 0  
Year to date cooling degree days 0 0  
Moisture  
Dew Point 13 °F    
Average Humidity 45    
Maximum Humidity 75    
Minimum Humidity 15    
Precipitation  
Precipitation 0.00 in - 2.39 in (1958)
Month to date precipitation 0.19  
Year to date precipitation 0.90  
Sea Level Pressure  
Sea Level Pressure 30.17 in    
Wind  
Wind Speed 4 mph (SSW)    
Max Wind Speed 21 mph    
Max Gust Speed 30 mph    
Visibility 10 miles    
Events      
T = Trace of Precipitation, MM = Missing Value Source: NWS Daily Summary

Daily Weather History Graph

Daily Weather History Graph

Search for Another Location

Airport:

Trip Planner

Search our weather history database for the weather conditions in past years. The results will help you decide how hot, cold, wet, or windy it might be!

Date:

Astronomy

Feb. 25, 2013 Rise Set
Actual Time 6:37 AM PST 5:48 PM PST
Civil Twilight 6:10 AM PST 6:15 PM PST
Nautical Twilight 5:39 AM PST 6:46 PM PST
Astronomical Twilight 5:09 AM PST 7:17 PM PST
Moon 6:06 PM PST (2/25) 6:10 AM PST (2/25)
Length of Visible Light 12h 05m
Length of Day
11h 11m
Full, 100% of the Moon is Illuminated
Feb 25
Full
Feb 25
Full
Mar 4
Last Quarter
Mar 11
New
Mar 19
First Quarter

Hourly Weather History & Observations

Time (PST) Temp. Windchill Dew Point Humidity Pressure Visibility Wind Dir Wind Speed Gust Speed Precip Events Conditions
12:53 AM 19.9 °F - 10.0 °F 65% 30.23 in 10.0 mi Calm Calm - N/A   Clear
1:53 AM 19.0 °F 13.9 °F 10.0 °F 68% 30.23 in 10.0 mi South 3.5 mph - N/A   Clear
2:53 AM 18.0 °F 12.7 °F 9.0 °F 68% 30.23 in 10.0 mi South 3.5 mph - N/A   Clear
3:53 AM 18.0 °F - 10.0 °F 71% 30.22 in 10.0 mi Calm Calm - N/A   Clear
4:53 AM 19.9 °F - 10.0 °F 65% 30.23 in 10.0 mi Calm Calm - N/A   Clear
5:53 AM 19.0 °F 11.1 °F 10.0 °F 68% 30.26 in 10.0 mi South 5.8 mph - N/A   Clear
6:53 AM 21.9 °F 17.2 °F 10.9 °F 63% 30.22 in 10.0 mi Variable 3.5 mph - N/A   Scattered Clouds
7:53 AM 26.1 °F - 14.0 °F 60% 30.22 in 10.0 mi Calm Calm - N/A   Clear
8:53 AM 39.9 °F 32.1 °F 16.0 °F 38% 30.18 in 10.0 mi South 13.8 mph - N/A   Clear
9:53 AM 43.0 °F 37.2 °F 15.1 °F 32% 30.15 in 10.0 mi SSE 10.4 mph - N/A   Clear
10:53 AM 46.0 °F 43.1 °F 1.0 °F 16% 30.12 in 10.0 mi South 5.8 mph 21.9 mph N/A   Clear
11:53 AM 46.9 °F - 1.0 °F 15% 30.11 in 10.0 mi South 12.7 mph 21.9 mph N/A   Clear
12:53 PM 46.9 °F - 3.9 °F 17% 30.10 in 10.0 mi SW 11.5 mph 23.0 mph N/A   Clear
1:53 PM 46.0 °F 42.5 °F 7.0 °F 20% 30.11 in 10.0 mi Variable 6.9 mph 25.3 mph N/A   Clear
2:53 PM 45.0 °F 40.6 °F 10.9 °F 25% 30.12 in 10.0 mi SW 8.1 mph 17.3 mph N/A   Clear
3:53 PM 45.0 °F 39.7 °F 12.9 °F 27% 30.12 in 10.0 mi SSW 10.4 mph - N/A   Clear
4:53 PM 41.0 °F 35.8 °F 19.0 °F 41% 30.12 in 10.0 mi SSW 8.1 mph - N/A   Clear
5:53 PM 34.0 °F - 19.9 °F 56% 30.16 in 10.0 mi Calm Calm - N/A   Clear
6:53 PM 30.9 °F - 19.9 °F 64% 30.19 in 10.0 mi Calm Calm - N/A   Clear
7:53 PM 30.0 °F - 21.9 °F 72% 30.18 in 10.0 mi Calm Calm - N/A   Clear
8:53 PM 28.0 °F - 21.0 °F 75% 30.15 in 10.0 mi Calm Calm - N/A   Clear
9:53 PM 28.0 °F 24.2 °F 19.9 °F 72% 30.15 in 10.0 mi SSW 3.5 mph - N/A   Clear
10:53 PM 26.1 °F 20.5 °F 18.0 °F 71% 30.14 in 10.0 mi SSW 4.6 mph - N/A   Clear
11:53 PM 25.0 °F 20.7 °F 15.1 °F 66% 30.14 in 10.0 mi SSW 3.5 mph - N/A   Clear